FW2347 Weather Reports


time (UTC)temp
F
wind
direction
speed
knots
gust
knots
rain 1hr
in
rain 24hr
in
rain mn
in
humidity
%
barometer
mb
20260507141522 67 236 0.0 0.0 0.00 0.00 0.00 53 1009.6
20260507140037 66 288 0.0 0.0 0.00 0.00 0.00 56 1009.8
20260507134524 67 213 0.0 0.0 0.00 0.00 0.00 54 1010.0
20260507133016 68 245 0.0 0.0 0.00 0.00 0.00 56 1010.2
20260507131604 65 226 0.0 0.0 0.00 0.00 0.00 58 1010.5
20260507130049 65 276 0.0 0.0 0.00 0.00 0.00 57 1010.6
20260507124510 66 253 0.0 0.0 0.00 0.00 0.00 58 1010.7
20260507123027 65 277 0.0 0.0 0.00 0.00 0.00 59 1010.8
20260507121536 66 360 0.0 0.0 0.00 0.00 0.00 58 1010.9
20260507120105 64 247 0.0 0.0 0.00 0.00 0.00 61 1011.1
20260507114511 65 243 0.0 0.0 0.00 0.00 0.00 60 1011.2
20260507113056 65 281 0.0 0.0 0.00 0.00 0.00 60 1011.5
20260507111539 65 235 0.0 0.0 0.00 0.00 0.00 61 1011.6
20260507110048 64 227 0.0 0.0 0.00 0.00 0.00 63 1011.9
20260507104519 64 275 0.0 0.0 0.00 0.00 0.00 64 1012.1
20260507103008 63 239 0.0 0.0 0.00 0.00 0.00 66 1012.2
20260507101524 64 268 0.0 0.0 0.00 0.00 0.00 67 1012.2
20260507100029 63 251 0.0 0.0 0.00 0.00 0.00 67 1012.5
20260507094526 63 271 0.0 0.0 0.00 0.00 0.00 69 1012.6
20260507093046 62 246 0.0 0.0 0.00 0.00 0.00 69 1012.7
20260507091552 61 296 0.0 0.0 0.00 0.00 0.00 70 1012.6
20260507090107 61 250 0.0 0.0 0.00 0.00 0.00 71 1012.6
20260507084538 60 250 0.0 0.0 0.00 0.00 0.00 71 1012.9
20260507083030 59 290 0.0 0.0 0.00 0.00 0.00 72 1013.0
20260507081601 59 276 0.0 0.0 0.00 0.00 0.00 71 1013.1
20260507080109 58 218 0.0 0.0 0.00 0.00 0.00 70 1013.2
20260507074510 57 263 0.0 0.0 0.00 0.00 0.00 67 1013.2
20260507073023 56 273 0.0 0.0 0.00 0.00 0.00 62 1013.3
20260507071536 56 261 0.0 0.0 0.00 0.00 0.00 55 1013.3
20260507070028 56 230 0.0 0.0 0.00 0.00 0.00 46 1013.0
20260507064536 54 229 0.0 0.0 0.00 0.00 0.00 25 1013.0
20260507063038 50 230 0.0 0.0 0.00 0.00 0.00 18 1013.0
20260507061541 50 230 0.0 0.0 0.00 0.00 0.00 11 1013.0
20260507060051 47 232 0.0 0.0 0.00 0.00 0.00 11 1013.1
20260507054603 45 232 0.0 0.0 0.00 0.00 0.00 13 1012.8
20260507053108 43 229 0.0 0.0 0.00 0.00 0.00 14 1012.8
20260507051608 42 229 0.0 0.0 0.00 0.00 0.00 15 1012.7
20260507050006 42 229 0.0 0.0 0.00 0.00 0.00 17 1012.7
20260507044502 42 229 0.0 0.0 0.00 0.00 0.00 17 1012.7
20260507043028 43 229 0.0 0.0 0.00 0.00 0.00 17 1012.7
20260507041535 42 229 0.0 0.0 0.00 0.00 0.00 19 1012.6
20260507040047 42 229 0.0 0.0 0.00 0.00 0.00 20 1012.5
20260507034607 42 229 0.0 0.0 0.00 0.00 0.00 22 1012.5
20260507033006 42 229 0.0 0.0 0.00 0.00 0.00 22 1012.5
20260507031531 43 229 0.0 0.0 0.00 0.00 0.00 23 1012.5
20260507030036 43 229 0.0 0.0 0.00 0.00 0.00 25 1012.6
20260507024548 43 229 0.0 0.0 0.00 0.00 0.00 27 1012.6
20260507023055 43 229 0.0 0.0 0.00 0.00 0.00 28 1012.6
20260507021518 44 229 0.0 0.0 0.00 0.00 0.00 30 1012.6
20260507020026 46 229 0.0 0.0 0.00 0.00 0.00 27 1012.7
20260507014521 46 230 0.0 0.0 0.00 0.00 0.00 25 1012.7
20260507013022 46 234 0.0 0.0 0.00 0.00 0.00 26 1012.7
20260507011537 46 233 0.0 0.0 0.00 0.00 0.00 27 1012.8
20260507004602 46 234 0.0 0.0 0.00 0.00 0.00 30 1012.9
20260507003101 46 233 0.0 0.0 0.00 0.00 0.00 32 1013.0
20260507001608 46 233 0.0 0.0 0.00 0.00 0.00 36 1013.2
20260507000107 47 234 0.0 0.0 0.00 0.00 0.00 39 1013.2
20260506234515 47 234 0.0 0.0 0.00 0.00 0.00 42 1013.2
20260506233023 48 234 0.0 0.0 0.00 0.00 0.00 46 1013.2
20260506231540 48 234 0.0 0.0 0.00 0.00 0.00 51 1013.1
20260506230002 49 234 0.0 0.0 0.00 0.00 0.00 53 1013.0
20260506224517 50 233 0.0 0.0 0.00 0.00 0.00 57 1013.1
20260506223040 50 233 0.0 0.0 0.00 0.00 0.00 60 1013.0
20260506221542 50 234 0.0 0.0 0.00 0.00 0.00 63 1012.9
20260506220101 50 233 0.0 0.0 0.00 0.00 0.00 66 1012.8
20260506214514 51 233 0.0 0.0 0.00 0.00 0.00 69 1012.8
20260506213029 51 233 0.0 0.0 0.00 0.00 0.00 70 1012.6
20260506211535 51 234 0.0 0.0 0.00 0.00 0.00 72 1012.6
20260506210110 51 233 0.0 0.0 0.00 0.00 0.00 73 1012.5
20260506204603 52 234 0.0 0.0 0.00 0.00 0.00 73 1012.3
20260506203108 54 233 0.0 0.0 0.00 0.00 0.00 72 1012.0
20260506201512 56 234 0.0 0.0 0.00 0.00 0.00 70 1011.6
20260506200019 57 233 0.0 0.0 0.00 0.00 0.00 68 1011.4
20260506194542 57 272 0.0 0.0 0.00 0.00 0.00 68 1011.2
20260506193036 57 240 0.0 0.0 0.00 0.00 0.00 67 1010.8
20260506191601 57 250 0.0 0.0 0.00 0.00 0.00 64 1010.5
20260506190044 58 313 0.0 0.0 0.00 0.00 0.00 62 1010.3
20260506184611 60 313 0.0 0.0 0.00 0.00 0.00 57 1010.1
20260506183107 61 313 0.0 0.0 0.00 0.00 0.00 53 1009.8
20260506181608 63 313 0.0 0.0 0.00 0.00 0.00 51 1009.6
20260506180110 64 345 0.0 0.0 0.00 0.00 0.00 50 1009.5
20260506174604 64 313 0.0 0.0 0.00 0.00 0.00 50 1009.3
20260506173116 64 305 0.0 0.0 0.00 0.00 0.00 49 1009.2
20260506171534 65 293 0.0 0.0 0.00 0.00 0.00 49 1009.1
20260506170044 66 349 0.0 0.0 0.00 0.00 0.00 48 1009.0
20260506164550 66 320 0.0 0.0 0.00 0.00 0.00 50 1009.0
20260506163052 66 350 0.0 0.0 0.00 0.00 0.00 51 1009.1
20260506161557 65 339 0.0 0.0 0.00 0.00 0.00 51 1009.0
20260506160104 66 55 0.0 0.0 0.00 0.00 0.00 50 1009.1
20260506154505 66 279 0.0 0.0 0.00 0.00 0.00 50 1009.1
20260506153012 66 319 0.0 0.0 0.00 0.00 0.00 50 1009.2
20260506151533 66 346 0.0 0.0 0.00 0.00 0.00 51 1009.2
20260506150028 66 317 0.0 0.0 0.00 0.00 0.00 51 1009.3
20260506144539 66 13 0.0 0.0 0.00 0.00 0.00 51 1009.3
20260506143047 66 309 0.0 0.0 0.00 0.00 0.00 52 1009.4